STARLINK-11722

Satellite information

Favourite Embed

Satellite Type and Status

PAYLOADIN ORBIT

Key statistics

Satellite STARLINK-11722 at a glance.

Uptime

203

Days in orbit

Revolutions

≈ 15.7

Per day

Orbit

LEO

Low Earth Orbit

Inclination

43.0

Latest

Satellite identification and parameters

Extended collection of information and parameters for STARLINK-11722.

Object identification

Identified? True

Debris? False

Object name: STARLINK-11722

International designator: 2025-111F

Object number (NORAD): 64128

Object ID (CCSDS): 64128

Country: UNITED STATES OF AMERICA (US)

Current information (Y/N): Y

RCS size: LARGE

Orbital parameters

Period: 91.664 minutes

Inclination: 42.9994 deg

SMA: 6734.31 km

Apoapsis: 357.05 km

Periapsis: 355.299 km

RAAN: 141.3965 deg

Eccentricy: 0.00013002

Argument of periapsis: 317.5616 deg

Mean anomaly: 42.5151 deg

Mean motion: 15.70952816 rev/day

Mean motion (dot): 0.00244465 rev/day2

B* drag term: 0.0018444299 1/REarth

Two-line elements (TLE)

Creation date: Dec. 12, 2025, 10:14 a.m.

Reference frame: TEME

Reference center: EARTH

Epoch: Dec. 12, 2025, 3:51 a.m. UTC

TLE line 0: 0 STARLINK-11722

TLE line 1: 1 64128U 25111F 25346.16079148 .00244465 00000-0 18444-2 0 9995

TLE line 2: 2 64128 42.9994 141.3965 0001300 317.5616 42.5151 15.70952816 32829

Live tracking on map

Real-time ground track for satellite STARLINK-11722.

In-orbit conjunctions

There are no conjunctions computed for STARLINK-11722, at the moment. Check back to stay up to date, as we update our databases every day.

Go to all conjunctions

Associated space launch

A batch of 23 satellites for the Starlink mega-constellation - SpaceX's project for space-based Internet communication system.

STARLINK-11722 was lifted into orbit during the mission ‘Falcon 9 Block 5 | Starlink Group 12-22’, on board a Falcon 9 space rocket.

The launch took place on May 24, 2025, 5:19 p.m. from Space Launch Complex 40.

For more information about the launch, click the button.

Launch to space Falcon 9 Block 5 | Starlink Group 12-22
Falcon 9 Block 5 | Starlink Group 12-22

Agency: SpaceX

Status: Launch Successful

Launch date: May 24, 2025, 5:19 p.m. UTC

Rocket: Falcon 9

Launch pad: Space Launch Complex 40

Location: Cape Canaveral SFS, FL, USA

...

Latest news about this satellite

News about space launch
Launch Roundup: SpaceX to start new Starlink shell; China, Russia to launch unknown payloads

This week, SpaceX will begin building a new shell for its Starlink constellation, launching from… The post Launch Roundup: SpaceX to start new Starlink shell; China, Russia to launch unknown payloads appeared first on NASASpaceFlight.com.


Newsletter sign-up

Weekly statistics, charts and insights to help you stay on top of the space industry.